Showing default

TROLL, 62658

Orbit data source: Space-Track

TROLL, 62658 is a Czech payload satellite in SSO that was launched on Tue, 14 Jan 2025 UTC via an FALCON 9 launch vehicle from the Air Force Western Test Range (AFWTR). Payload-class satellites include a variety of spacecraft equipped with specific instruments for various scientific and technological missions. These include communications satellites like Starlink; space stations such as the ISS; scientific satellites like the Hubble; Earth observation satellites from companies like Planet Labs, Umbra, and HawkEye 360; GPS; miniature CubeSats for education and research; and military/defense satellites.

Loading next visibility...
Identifier
62658, 2025-009BB
Orbit
SSO
Country
Flag of CZCZ / CZE
Related business
Manufacturer
ISIS BV
Mission
Operational Commercial Technology
Bus & Motor
CUBESAT 6U, Unknown motor
Mass
~10 kg wet, ~10 kg dry
Launch date (UTC)
2025-01-14 (1 year ago)
Launch vehicle
FALCON 9
Launch site
Air Force Western Test Range (AFWTR)
Object type
Payload
Rocket body
Debris
Shape & HBR
Box + 2 Pan, 0.1 m
Radar Cross Section
0.080 m², Medium (>0.1 m² and < 1m²)

Expand to show TLE details & history
Last TLE update: 15 hours ago

TLE from 15 hours ago
0 TROLL
1 62658U 25009BB  26171.21913528  .00007628  00000-0  26374-3 0  9999
2 62658  97.3889 253.0538 0001689  57.7031 302.4373 15.30188302133916
Epoch: 2026-06-20T05:15Z
TLE epoch observation values (Epoch: 2026-06-20T05:15:33.288Z)
Latitude
-0.00002°
Longitude
-94.2718°
Altitude
477.734 km
Speed
7.627 km/s
True Right ascension
16h 52m 12s
True Declination
0° 00' 00"
Sunlit
Object was in full shadow at epoch
Visualization orbit readout
Latitude
Unknown
Longitude
Unknown
Altitude
Unknown
Speed
Unknown
Apparent Right ascension
Unknown
Apparent Declination
Unknown
Sunlit
N/A
Visualization observer readout
Local Sidereal Time
07:23:38
Azimuth
Unknown
Elevation
Unknown
Doppler factor
Unknown
Orbital elements
Apogee altitude
473.359 km
Perigee altitude
471.045 km
Semi-major axis
6,850.339 km
Eccentricity
0.00017
Inclination
97.3889°
RAAN
253.0538°
Arg. of periapsis
57.7031°
True anomaly
302.42096°
Mean anomaly
302.4373°
Eccentric anomaly
302.42913°
Mean motion
3.82803 °/min
Orbital period
94.04 mins
BSTAR
0.00026374
Loading maneuver chart data...
Computing Atmospheric mass density...
Loading historical data...
Loading historical data...
Loading historical data...
Loading historical data...
Loading historical data...
Loading historical data...
Loading historical data...

Documentation

Showing up to 5 results
|